TimeCDT,TemperatureF,Dew PointF,Humidity,Sea Level PressureIn,VisibilityMPH,Wind Direction,Wind SpeedMPH,Gust SpeedMPH,PrecipitationIn,Events,Conditions,WindDirDegrees,DateUTC
12:53 AM,64.9,60.1,84,29.92,10.0,Calm,Calm,-,N/A,,Clear,0,2013-09-30 05:53:00
1:53 AM,66.9,60.1,79,29.91,10.0,Calm,Calm,-,N/A,,Overcast,0,2013-09-30 06:53:00
2:53 AM,68.0,62.1,81,29.90,10.0,Calm,Calm,-,N/A,,Overcast,0,2013-09-30 07:53:00
3:53 AM,68.0,64.9,90,29.88,10.0,Calm,Calm,-,N/A,,Overcast,0,2013-09-30 08:53:00
4:53 AM,69.1,59.0,70,29.88,10.0,Calm,Calm,-,N/A,,Overcast,0,2013-09-30 09:53:00
5:53 AM,64.9,61.0,87,29.88,10.0,Calm,Calm,-,N/A,,Clear,0,2013-09-30 10:53:00
6:53 AM,64.0,60.1,87,29.88,10.0,Calm,Calm,-,N/A,,Clear,0,2013-09-30 11:53:00
7:53 AM,64.0,62.1,93,29.89,10.0,Calm,Calm,-,N/A,,Clear,0,2013-09-30 12:53:00
8:53 AM,71.1,55.0,57,29.89,10.0,Calm,Calm,-,N/A,,Clear,0,2013-09-30 13:53:00
9:53 AM,77.0,53.1,43,29.90,10.0,Calm,Calm,-,N/A,,Clear,0,2013-09-30 14:53:00
10:53 AM,80.1,48.9,34,29.90,10.0,West,3.5,-,N/A,,Clear,270,2013-09-30 15:53:00
11:53 AM,82.0,50.0,33,29.90,10.0,SSE,5.8,-,N/A,,Clear,160,2013-09-30 16:53:00
12:53 PM,84.0,52.0,33,29.88,10.0,SSW,5.8,-,N/A,,Clear,210,2013-09-30 17:53:00
1:53 PM,84.0,52.0,33,29.86,10.0,SSE,6.9,-,N/A,,Clear,160,2013-09-30 18:53:00
2:53 PM,84.9,55.0,36,29.83,10.0,South,6.9,-,N/A,,Clear,180,2013-09-30 19:53:00
3:53 PM,84.9,55.9,37,29.82,10.0,South,5.8,-,N/A,,Clear,180,2013-09-30 20:53:00
4:53 PM,84.9,57.9,40,29.81,10.0,South,3.5,-,N/A,,Clear,170,2013-09-30 21:53:00
5:53 PM,84.0,61.0,46,29.82,10.0,South,8.1,-,N/A,,Clear,180,2013-09-30 22:53:00
6:53 PM,82.0,62.1,51,29.82,10.0,South,4.6,-,N/A,,Clear,180,2013-09-30 23:53:00
7:53 PM,78.1,64.9,64,29.83,10.0,South,3.5,-,N/A,,Clear,170,2013-10-01 00:53:00
8:53 PM,75.0,68.0,79,29.84,10.0,Calm,Calm,-,N/A,,Clear,0,2013-10-01 01:53:00
9:53 PM,75.0,69.1,82,29.86,10.0,Calm,Calm,-,N/A,,Clear,0,2013-10-01 02:53:00
10:53 PM,73.9,70.0,87,29.86,10.0,SE,3.5,-,N/A,,Clear,130,2013-10-01 03:53:00
11:53 PM,73.9,71.1,91,29.85,10.0,ESE,3.5,-,N/A,,Clear,120,2013-10-01 04:53:00